Starlink 31493

operational
NORAD ID: 59329 Int'l Des: 2024-057 Owner: SPXS Country: US Constellation: starlink
LEOCIRCULAR

关于 Starlink 31493

正在加载描述...

实时位置

正在加载3D地球...

即将过境

高度历史

Altitude vs Time

uPlot chart will show altitude changes over time

两行轨道根数

1 59329U 24057K 25259.25957954 -.00002205 00000-0 -70590-4 0 9991
2 59329 43.0051 92.0455 0002168 268.9026 91.1578 15.27584483 83164
Epoch: Sep 16, 2025 • Age: 14 hours

当前状态

高度 482.4 km
速度 7.63 km/s
星下点 9.76°N, 157°E
发射日期 Mar 25, 2024
运行时间 1.4 years
类型 internet

技术详情

分类 Payload
质量 730.00 kg
干质量 700.00 kg
总质量 730.00 kg
长度 0.30 m
直径 4.10 m
跨度 29.00 m
形状 Box + pan
制造商 SPXS
平台类型 Starlink V2M
阶段状态 In Orbit
所有者/国家 SPXS/US

大型星座

Loading constellations...